Site-Specific Forecast Table for Stillwater
DATE TIME TAIR TDEW RELH WDIR WSPD 1-hr PRECIP SRAD CLOUD
Mon Sep 25, 2017 7:00 am CDT 70°F 66°F 87% SSE 9 mph 0.00 in. 0 W/m2 1%
Mon Sep 25, 2017 8:00 am CDT 73°F 67°F 81% SSE 10 mph 0.00 in. 141 W/m2 2%
Mon Sep 25, 2017 9:00 am CDT 76°F 67°F 75% SSE 11 mph 0.00 in. 282 W/m2 3%
Mon Sep 25, 2017 10:00 am CDT 79°F 67°F 68% SSE 12 mph 0.00 in. 423 W/m2 4%
Mon Sep 25, 2017 11:00 am CDT 82°F 68°F 63% SSE 13 mph 0.00 in. 542 W/m2 6%
Mon Sep 25, 2017 12:00 pm CDT 84°F 68°F 58% SSE 14 mph 0.00 in. 660 W/m2 8%
Mon Sep 25, 2017 1:00 pm CDT 87°F 67°F 53% S 15 mph 0.00 in. 779 W/m2 10%
Mon Sep 25, 2017 2:00 pm CDT 87°F 67°F 52% S 16 mph 0.00 in. 708 W/m2 9%
Mon Sep 25, 2017 3:00 pm CDT 86°F 66°F 51% S 17 mph 0.00 in. 637 W/m2 8%
Mon Sep 25, 2017 4:00 pm CDT 86°F 65°F 50% S 18 mph 0.00 in. 565 W/m2 6%
Mon Sep 25, 2017 5:00 pm CDT 84°F 65°F 53% S 15 mph 0.00 in. 382 W/m2 29%
Mon Sep 25, 2017 6:00 pm CDT 82°F 64°F 56% S 12 mph 0.00 in. 198 W/m2 52%
Mon Sep 25, 2017 7:00 pm CDT 79°F 64°F 59% S 9 mph 0.00 in. 14 W/m2 75%
Mon Sep 25, 2017 8:00 pm CDT 78°F 65°F 64% S 7 mph 0.00 in. 0 W/m2 78%
Mon Sep 25, 2017 9:00 pm CDT 76°F 65°F 69% S 4 mph 0.00 in. 0 W/m2 81%
Mon Sep 25, 2017 10:00 pm CDT 75°F 66°F 74% S 1 mph 0.00 in. 0 W/m2 84%
Mon Sep 25, 2017 11:00 pm CDT 73°F 67°F 82% NW 1 mph 0.16 in. 0 W/m2 68%
Tue Sep 26, 2017 12:00 am CDT 71°F 68°F 90% NNW 2 mph 0.16 in. 0 W/m2 52%
Tue Sep 26, 2017 1:00 am CDT 70°F 69°F 97% NNW 4 mph 0.16 in. 0 W/m2 36%
Tue Sep 26, 2017 2:00 am CDT 69°F 69°F 97% N 5 mph 0.02 in. 0 W/m2 57%
DATE TIME TAIR TDEW RELH WDIR WSPD 1-hr PRECIP SRAD CLOUD
Tue Sep 26, 2017 3:00 am CDT 69°F 68°F 97% N 6 mph 0.02 in. 0 W/m2 79%
Tue Sep 26, 2017 4:00 am CDT 69°F 68°F 97% N 8 mph 0.02 in. 0 W/m2 100%
Tue Sep 26, 2017 5:00 am CDT 69°F 68°F 97% N 10 mph 0.07 in. 0 W/m2 100%
Tue Sep 26, 2017 6:00 am CDT 68°F 67°F 96% N 11 mph 0.07 in. 0 W/m2 100%
Tue Sep 26, 2017 7:00 am CDT 67°F 66°F 95% NNE 13 mph 0.07 in. 0 W/m2 100%
Tue Sep 26, 2017 8:00 am CDT 65°F 64°F 96% N 12 mph 0.60 in. 5 W/m2 100%
Tue Sep 26, 2017 9:00 am CDT 64°F 63°F 97% N 12 mph 0.60 in. 10 W/m2 100%
Tue Sep 26, 2017 10:00 am CDT 62°F 61°F 98% N 11 mph 0.60 in. 15 W/m2 100%
Tue Sep 26, 2017 11:00 am CDT 62°F 61°F 95% N 11 mph 0.15 in. 104 W/m2 100%
Tue Sep 26, 2017 12:00 pm CDT 63°F 60°F 92% N 12 mph 0.15 in. 193 W/m2 99%
Tue Sep 26, 2017 1:00 pm CDT 63°F 60°F 88% N 12 mph 0.15 in. 282 W/m2 99%
Tue Sep 26, 2017 2:00 pm CDT 63°F 59°F 89% N 12 mph 0.00 in. 221 W/m2 99%
Tue Sep 26, 2017 3:00 pm CDT 62°F 59°F 89% N 13 mph 0.00 in. 161 W/m2 100%
Tue Sep 26, 2017 4:00 pm CDT 62°F 59°F 90% N 13 mph 0.00 in. 101 W/m2 100%
Tue Sep 26, 2017 5:00 pm CDT 61°F 59°F 90% N 13 mph 0.00 in. 71 W/m2 100%
Tue Sep 26, 2017 6:00 pm CDT 61°F 59°F 91% N 13 mph 0.00 in. 41 W/m2 100%
Tue Sep 26, 2017 7:00 pm CDT 61°F 59°F 92% N 13 mph 0.00 in. 11 W/m2 100%
Tue Sep 26, 2017 8:00 pm CDT 61°F 58°F 91% N 13 mph 0.00 in. 0 W/m2 100%
Tue Sep 26, 2017 9:00 pm CDT 60°F 57°F 90% NNE 13 mph 0.00 in. 0 W/m2 99%
Tue Sep 26, 2017 10:00 pm CDT 60°F 57°F 90% NNE 13 mph 0.00 in. 0 W/m2 99%
DATE TIME TAIR TDEW RELH WDIR WSPD 1-hr PRECIP SRAD CLOUD
Tue Sep 26, 2017 11:00 pm CDT 60°F 56°F 90% NNE 13 mph 0.00 in. 0 W/m2 99%
Wed Sep 27, 2017 12:00 am CDT 59°F 56°F 89% NNE 13 mph 0.00 in. 0 W/m2 99%
Wed Sep 27, 2017 1:00 am CDT 59°F 56°F 89% NNE 12 mph 0.00 in. 0 W/m2 99%
Wed Sep 27, 2017 2:00 am CDT 59°F 55°F 89% NNE 12 mph 0.00 in. 0 W/m2 99%
Wed Sep 27, 2017 3:00 am CDT 59°F 56°F 89% NNE 13 mph 0.00 in. 0 W/m2 100%
Wed Sep 27, 2017 4:00 am CDT 58°F 55°F 89% NNE 13 mph 0.00 in. 0 W/m2 100%
Wed Sep 27, 2017 5:00 am CDT 58°F 56°F 91% NNE 13 mph 0.02 in. 0 W/m2 96%
Wed Sep 27, 2017 6:00 am CDT 58°F 56°F 92% NNE 13 mph 0.02 in. 0 W/m2 92%
Wed Sep 27, 2017 7:00 am CDT 58°F 56°F 93% NNE 13 mph 0.02 in. 0 W/m2 88%
Wed Sep 27, 2017 8:00 am CDT 59°F 57°F 93% NNE 14 mph 0.02 in. 19 W/m2 92%
Wed Sep 27, 2017 9:00 am CDT 59°F 57°F 93% NNE 14 mph 0.02 in. 37 W/m2 96%
Wed Sep 27, 2017 10:00 am CDT 60°F 58°F 93% NNE 15 mph 0.02 in. 56 W/m2 100%
Wed Sep 27, 2017 11:00 am CDT 61°F 58°F 92% NNE 14 mph 0.03 in. 98 W/m2 100%
Wed Sep 27, 2017 12:00 pm CDT 62°F 59°F 92% NNE 14 mph 0.03 in. 140 W/m2 100%
Wed Sep 27, 2017 1:00 pm CDT 62°F 60°F 91% NNE 13 mph 0.03 in. 181 W/m2 100%
Wed Sep 27, 2017 2:00 pm CDT 62°F 60°F 90% NNE 14 mph 0.00 in. 151 W/m2 100%
Wed Sep 27, 2017 3:00 pm CDT 63°F 60°F 90% NNE 15 mph 0.00 in. 120 W/m2 100%
Wed Sep 27, 2017 4:00 pm CDT 63°F 60°F 89% NNE 15 mph 0.00 in. 90 W/m2 99%
Wed Sep 27, 2017 5:00 pm CDT 62°F 59°F 88% NNE 15 mph 0.00 in. 61 W/m2 100%
Wed Sep 27, 2017 6:00 pm CDT 62°F 58°F 88% NNE 14 mph 0.00 in. 32 W/m2 100%
DATE TIME TAIR TDEW RELH WDIR WSPD 1-hr PRECIP SRAD CLOUD
Wed Sep 27, 2017 7:00 pm CDT 61°F 58°F 88% NNE 13 mph 0.00 in. 3 W/m2 100%
Wed Sep 27, 2017 8:00 pm CDT 61°F 57°F 86% NNE 12 mph 0.00 in. 0 W/m2 94%
Wed Sep 27, 2017 9:00 pm CDT 61°F 56°F 84% NNE 11 mph 0.00 in. 0 W/m2 87%
Wed Sep 27, 2017 10:00 pm CDT 60°F 55°F 81% NNE 10 mph 0.00 in. 0 W/m2 81%
Wed Sep 27, 2017 11:00 pm CDT 60°F 54°F 80% NNE 9 mph 0.00 in. 0 W/m2 87%
Thu Sep 28, 2017 12:00 am CDT 60°F 53°F 80% NNE 9 mph 0.00 in. 0 W/m2 94%
Thu Sep 28, 2017 1:00 am CDT 59°F 53°F 79% NNE 8 mph 0.00 in. 0 W/m2 100%
Thu Sep 28, 2017 2:00 am CDT 59°F 52°F 78% NNE 9 mph 0.00 in. 0 W/m2 100%
Thu Sep 28, 2017 3:00 am CDT 59°F 52°F 78% NNE 9 mph 0.00 in. 0 W/m2 100%
Thu Sep 28, 2017 4:00 am CDT 59°F 51°F 77% NNE 9 mph 0.00 in. 0 W/m2 100%
Thu Sep 28, 2017 5:00 am CDT 58°F 51°F 76% NNE 9 mph 0.00 in. 0 W/m2 98%
Thu Sep 28, 2017 6:00 am CDT 58°F 50°F 75% NNE 9 mph 0.00 in. 0 W/m2 96%
Thu Sep 28, 2017 7:00 am CDT 58°F 50°F 74% NNE 9 mph 0.00 in. 0 W/m2 94%
Thu Sep 28, 2017 8:00 am CDT 59°F 49°F 71% NNE 10 mph 0.00 in. 22 W/m2 90%
Thu Sep 28, 2017 9:00 am CDT 59°F 49°F 69% NNE 10 mph 0.00 in. 44 W/m2 87%
Thu Sep 28, 2017 10:00 am CDT 60°F 49°F 66% NNE 10 mph 0.00 in. 66 W/m2 83%
Thu Sep 28, 2017 11:00 am CDT 64°F 50°F 61% NE 10 mph 0.00 in. 247 W/m2 63%
Thu Sep 28, 2017 12:00 pm CDT 67°F 51°F 56% NE 11 mph 0.00 in. 427 W/m2 43%
Thu Sep 28, 2017 1:00 pm CDT 70°F 51°F 50% NE 12 mph 0.00 in. 608 W/m2 23%